Terminal Aerodrome Forecast
Issued by NWS Blacksburg, VA

Current Version | Previous Version | Graphics & Text | Print | Product List | Glossary On
Versions: 1 2 3 4 5 6 7 8 9 10 11 12 13 14 15 16 17 18 19 20 21 22 23 24
000
FTUS41 KRNK 281752 AAA
TAFBLF
TAF AMD
KBLF 281752Z 2818/2918 28012G22KT P6SM SCT010 BKN035
      TEMPO 2819/2822 4SM SHRA SCT007 OVC015
     FM282200 30008KT P6SM VCSH BKN030
     FM290600 32005KT P6SM BKN008
     FM291600 35004KT P6SM BKN035=

USA.gov is the U.S. government's official web portal to all federal, state and local government web resources and services.